Regional Weather Roundup
Issued by NWS Jackson, KY

Home | Current Version | Previous Version | Text Only | Print | Product List | Glossary On
Versions: 1 2 3 4 5 6 7 8 9 10 11 12 13 14 15 16 17 18 19 20 21 22 23 24 25 26 27 28 29 30 31 32 33 34 35 36 37 38 39 40 41 42 43 44 45 46 47 48 49 50
000
ASUS43 KJKL 300810
RWRJKL

EAST KENTUCKY HOURLY WEATHER ROUNDUP
NATIONAL WEATHER SERVICE JACKSON KY
400 AM EDT SUN AUG 30 2015

NOTE: "FAIR" INDICATES FEW OR NO CLOUDS BELOW 12,000 FEET WITH
NO SIGNIFICANT WEATHER AND/OR OBSTRUCTIONS TO VISIBILITY.

* THESE REPORTS ARE NOT UNDER NWS QUALITY CONTROL AND MAY NOT
  REPORT WEATHER SUCH AS PRECIPITATION AND FOG.

KYZ079-080-083-085-087-088-110-112-115-119-120-300900
...EASTERN KENTUCKY...

CITY           SKY/WX    TMP DP  RH WIND       PRES   REMARKS
JACKSON        CLEAR     67  63  87 CALM      30.14R
LONDON         CLEAR     66  62  87 SE3       30.13F FOG
SOMERSET*      PTCLDY    66  66 100 CALM      30.13S FOG
MONTICELLO*    MOCLDY    66  66 100 CALM      30.14F FOG
WILLIAMSBURG*  CLEAR     64  64 100 CALM      30.14
MIDDLESBORO*   CLEAR     63  62  99 CALM      30.15S
HARLAN APT*      N/A     63  63 100 MISG      30.16S VSB 1/2
HAZARD APT*    SUNNY     64  64 100 CALM      30.14S
BLACK MTN*       N/A     64  57  77 S3          N/A
PIKEVILLE APT* PTCLDY    66  63  88 S3        30.14S
BIG SANDY*     PTSUNNY   68  64  88 SW3       30.14R
MOREHEAD APT*  CLOUDY    70  66  88 SW6       30.13S
$$

KYZ035-036-041-042-044-050-067-078-099-300900
...CENTRAL KENTUCKY...

CITY           SKY/WX    TMP DP  RH WIND       PRES   REMARKS
MT STERLING*   PTCLDY    68  68 100 SW5       30.13S
FLEMING/MASON* MOCLDY    68  66  94 S5        30.12S
DANVILLE*      CLEAR     66  64  94 SW3       30.12S
RICHMOND*      PTCLDY    70  66  88 CALM      30.11S
LEXINGTON      PTCLDY    68  65  90 SW5       30.11S
FRANKFORT      PTCLDY    70  66  87 S6        30.09S
$$

KYZ091>093-OHZ055-061-077-WVZ005-015-034-035-042-300900
...SOUTHERN OHIO/WEST VIRGINIA...

CITY           SKY/WX    TMP DP  RH WIND       PRES   REMARKS
COVINGTON      MOCLDY    66  64  93 S5        30.08S
COLUMBUS       LGT RAIN  68  66  93 E3        30.07F
DAYTON         LGT RAIN  69  65  86 S5        30.06F
WILMINGTON     MOCLDY    67  64  90 S3        30.09S
HUNTINGTON     CLOUDY    67  65  93 S3        30.10S
CHARLESTON     PTCLDY    63  62  97 CALM      30.11R FOG
PINEVILLE*     PTCLDY    61  61 100 MISG      30.22S FOG
BECKLEY        PTCLDY    61  57  87 CALM      30.20S
BLUEFIELD      MOCLDY    67  56  67 CALM      30.22S
$$

VAZ002-007-008-TNZ017-027-036-066-071-300900
...SOUTHWEST VIRGINIA/EAST TENNESSEE...

CITY           SKY/WX    TMP DP  RH WIND       PRES   REMARKS
WISE*          MOCLDY    66  57  72 SW3       30.22R
JONESVILLE*    PTSUNNY   63  63 100 CALM      30.17S
ABINGDON*      MOCLDY    67  62  83 CALM      30.18S
BRISTOL        CLOUDY    65  63  93 CALM      30.15F
KNOXVILLE      CLOUDY    71  65  81 CALM      30.12R
OAK RIDGE      CLOUDY    72  66  81 CALM      30.13S
CROSSVILLE     CLOUDY    71  63  75 CALM      30.16F
NASHVILLE      MOCLDY    70  66  87 CALM      30.09F
$$

...KEY TO REMARKS...
VSB - VISIBILITY IN MILES
WCI - WIND CHILL INDEX
HX  - HEAT INDEX

$$


USA.gov is the U.S. government's official web portal to all federal, state and local government web resources and services.